This is the latest recevied weather packets stored in our database for station/object DB0OHA-10. If no packets are shown the sender has not sent any weather packets the latest 10 day(s).
| Time | Temp. | Humidity | Pressure | Rain* | Wind** | Luminosity | Snow |
|---|---|---|---|---|---|---|---|
| 1777724116 | 25° C | 33% | 1018.2 hPa | 0 mm | - | 752 W/m² | - |
| 1777723216 | 25° C | 34% | 1018.3 hPa | 0 mm | - | 765 W/m² | - |
| 1777722316 | 23.89° C | 34% | 1018.5 hPa | 0 mm | - | 770 W/m² | - |
| 1777721416 | 24.44° C | 35% | 1018.7 hPa | 0 mm | - | 775 W/m² | - |
| 1777720516 | 23.33° C | 38% | 1019 hPa | 0 mm | - | 772 W/m² | - |
| 1777719616 | 23.33° C | 37% | 1019.1 hPa | 0 mm | - | 765 W/m² | - |
| 1777718716 | 23.33° C | 36% | 1019.3 hPa | 0 mm | - | 698 W/m² | - |
| 1777717816 | 22.22° C | 37% | 1019.6 hPa | 0 mm | - | 592 W/m² | - |
| 1777716916 | 22.78° C | 38% | 1019.8 hPa | 0 mm | - | 642 W/m² | - |
| 1777716016 | 21.67° C | 37% | 1019.9 hPa | 0 mm | - | 729 W/m² | - |
| 1777715116 | 21.67° C | 40% | 1020.1 hPa | 0 mm | - | 714 W/m² | - |
| 1777714216 | 21.11° C | 39% | 1020.3 hPa | 0 mm | - | 700 W/m² | - |
| 1777713316 | 21.11° C | 43% | 1020.2 hPa | 0 mm | - | 679 W/m² | - |
| 1777712416 | 21.11° C | 46% | 1020.4 hPa | 0 mm | - | 656 W/m² | - |
| 1777711516 | 20° C | 47% | 1020.6 hPa | 0 mm | - | 633 W/m² | - |
| 1777710616 | 19.44° C | 49% | 1020.7 hPa | 0 mm | - | 606 W/m² | - |
| 1777709716 | 18.89° C | 48% | 1020.8 hPa | 0 mm | - | 578 W/m² | - |
| 1777708816 | 18.89° C | 51% | 1020.8 hPa | 0 mm | - | 548 W/m² | - |
| 1777707916 | 18.33° C | 49% | 1021.1 hPa | 0 mm | - | 517 W/m² | - |
| 1777707016 | 17.78° C | 50% | 1021.2 hPa | 0 mm | - | 485 W/m² | - |
| 1777706117 | 17.78° C | 51% | 1021.1 hPa | 0 mm | - | 436 W/m² | - |
| 1777705223 | 17.22° C | 53% | 1021.2 hPa | 0 mm | - | 362 W/m² | - |
| 1777705217 | 17.22° C | 53% | 1021.2 hPa | 0 mm | - | 362 W/m² | - |
| 1777704317 | 16.67° C | 54% | 1021.3 hPa | 0 mm | - | 279 W/m² | - |
| 1777703416 | 16.11° C | 57% | 1021.4 hPa | 0 mm | - | 274 W/m² | - |
* Rain latest hour (hover to see other rain measurements)
** Current wind speed in m/s (hover to see current wind gust speed)